This is the latest recevied weather packets stored in our database for station/object YO8PIC-4. If no packets are shown the sender has not sent any weather packets the latest 10 day(s).
| Time | Temp. | Humidity | Pressure | Rain* | Wind** | Luminosity | Snow |
|---|---|---|---|---|---|---|---|
| 1777879987 | 25.56° C | 48% | 1013.4 hPa | - | - | - | - |
| 1777879387 | 25.56° C | 49% | 1013.5 hPa | - | - | - | - |
| 1777878787 | 25° C | 50% | 1013.5 hPa | - | - | - | - |
| 1777878187 | 25° C | 49% | 1013.5 hPa | - | - | - | - |
| 1777877587 | 25.56° C | 46% | 1013.2 hPa | - | - | - | - |
| 1777876981 | 26.11° C | 47% | 1013.4 hPa | - | - | - | - |
| 1777876381 | 25° C | 49% | 1013.4 hPa | - | - | - | - |
| 1777875781 | 25.56° C | 47% | 1013.2 hPa | - | - | - | - |
| 1777875180 | 25° C | 48% | 1013.4 hPa | - | - | - | - |
| 1777874598 | 25° C | 47% | 1013.4 hPa | - | - | - | - |
| 1777873998 | 26.11° C | 44% | 1013.4 hPa | - | - | - | - |
| 1777873397 | 24.44° C | 43% | 1013.3 hPa | - | - | - | - |
| 1777872797 | 26.11° C | 46% | 1013.3 hPa | - | - | - | - |
| 1777872197 | 26.11° C | 47% | 1013.3 hPa | - | - | - | - |
| 1777871597 | 26.11° C | 47% | 1013.6 hPa | - | - | - | - |
| 1777870997 | 23.89° C | 52% | 1013.5 hPa | - | - | - | - |
| 1777870397 | 22.22° C | 55% | 1013.7 hPa | - | - | - | - |
| 1777869797 | 22.22° C | 55% | 1013.8 hPa | - | - | - | - |
| 1777869196 | 22.22° C | 53% | 1013.8 hPa | - | - | - | - |
| 1777868614 | 22.22° C | 54% | 1013.8 hPa | - | - | - | - |
| 1777868014 | 22.78° C | 53% | 1013.8 hPa | - | - | - | - |
| 1777867414 | 22.78° C | 53% | 1013.7 hPa | - | - | - | - |
| 1777866813 | 22.78° C | 53% | 1013.5 hPa | - | - | - | - |
| 1777866213 | 22.78° C | 53% | 1013.4 hPa | - | - | - | - |
| 1777865613 | 22.78° C | 53% | 1013.5 hPa | - | - | - | - |
* Rain since midnight (hover to see other rain measurements)
** Current wind speed in m/s (hover to see current wind gust speed)